Location: La Plant
(45.1447°N, 100.6515°W)
Time: 22:40:04
(UTC+00:00)

ISS - Pass Details

Date: 30 November 2020
Orbit: 418 x 419 km, 51.6° (Epoch: 18 January)

Event Time Altitude Azimuth Distance (km) Brightness Sun altitude
Rises 00:00:14 0° 280° (W) 2,367 1.2 -10.0°
Reaches altitude 10° 00:02:32 10° 293° (WNW) 1,503 -0.2 -10.4°
Maximum altitude 00:05:28 27° 353° (N) 843 -2.4 -10.9°
Enters shadow 00:07:33 15° 45° (NE) 1,219 -2.0 -11.2°
